Regional Weather Roundup
Issued by NWS

Home | Current Version | Previous Version | Graphics & Text | Print | Product List | Glossary On
Versions: 1 2 3 4 5 6 7 8 9 10 11 12 13 14 15 16 17 18 19 20 21 22 23 24 25 26 27 28 29 30 31 32 33 34 35 36 37 38 39 40 41 42 43 44 45 46 47 48 49 50
000
ASUS43 KLOT 041903
RWRIL

ILLINOIS REGIONAL WEATHER ROUNDUP
NATIONAL WEATHER SERVICE CHICAGO/ROMEOVILLE IL
100 PM CST SUN DEC 04 2016

NOTE: "FAIR" INDICATES FEW OR NO CLOUDS BELOW 12,000 FEET WITH NO
SIGNIFICANT WEATHER AND/OR OBSTRUCTIONS TO VISIBILITY.

* THESE STATIONS ARE NOT UNDER NWS QUALITY CONTROL. THEY ALSO MAY NOT
  REPORT WEATHER SUCH AS PRECIPITATION OR FOG.

ILZ001-002-007-009-015-016-024-042000-
NORTHWEST ILLINOIS

CITY           SKY/WX    TMP DP  RH WIND       PRES   REMARKS
MOLINE         SNOW      32  30  92 E3        29.96F VSB 1/2
STERLING*      SNOW      33  31  92 CALM      29.98R VSB 1/2
SAVANNA*       SNOW      31  30  97 SE3       29.97F VSB 1/2
$$

ILZ003-004-008-010-011-017-018-042000-
NORTH CENTRAL ILLINOIS

CITY           SKY/WX    TMP DP  RH WIND       PRES   REMARKS
ROCKFORD       HVY SNOW  31  29  92 SE10      29.97F VSB 1/4 WCI  22
FREEPORT*      SNOW      30  29  96 SE5       29.98S VSB 1/2 WCI  25
ROCHELLE*      LGT SNOW  31  29  96 SE13      29.95F VSB 3/4 WCI  21
$$

ILZ005-006-012>014-019>023-042000-
NORTHEAST ILLINOIS

CITY           SKY/WX    TMP DP  RH WIND       PRES   REMARKS
CHICAGO-OHARE  SNOW      31  30  96 SE5       29.98F VSB 1/4 WCI  26
CHICAGO-MIDWAY LGT SNOW  33  29  85 SE7       29.99F VSB 3/4 WCI  27
AURORA         HVY SNOW  33  30  88 E6        29.98F VSB 1/4 WCI  28
LANSING*       SNOW      32  32 100 CALM      29.99F VSB 1/2
JOLIET*        SNOW      33  32  99 CALM      29.98F VSB 1/2
WAUKEGAN       SNOW      33  31  92 SE7       29.97F VSB 1/4 WCI  27
DUPAGE AIRPORT SNOW      32  29  88 SE5       29.98F VSB 1/2 WCI  27
KANKAKEE*      SNOW      32  32  99 NE3       29.96F VSB 1/2
WHEELING       SNOW      32  30  92 S6        30.00F VSB 1/4 WCI  26
MORRIS*        SNOW      32  31  96 CALM      29.97F VSB 1/4
ROMEOVILLE*    SNOW      31  31 100 CALM      29.98F VSB 1/2
NORTHERLY ISL    N/A     33  31  92 S2          N/A
$$

LMZ740>746-042000-
SOUTHERN LAKE MICHIGAN

STATION/POSITION SKY/WX   TEMP    WIND        PRES    VSBY  WAVE
                          AIR SEA DIR/SP/G                  HT/PER
                          (F)     (DEG/KT/KT) (MB)    (MI)  (FT/S)
HARRISON CRIB              34     160/  7/ 10   N/A
BURNHAM HARBOR             33     170/  2/  3   N/A
CALUMET HARBOR             32     160/  2/  3 1015.6F
BURNS HARBOR               33      90/  7/  9 1016.3F
$$

ILZ025>027-034>036-040-047-049-050-058-095>099-042000-
WEST-CENTRAL ILLINOIS

CITY           SKY/WX    TMP DP  RH WIND       PRES   REMARKS
QUINCY         LGT SNOW  33  32  96 SE5       29.94F FOG     WCI  29
GALESBURG*     LGT SNOW  32  32 100 CALM      29.95F VSB 3/4
MACOMB*        SNOW      32  32 100 E3        29.97F VSB 1/2
JACKSONVILLE*  SNOW      32  32  99 CALM      29.94F VSB 1/2
PITTSFIELD*    LGT RAIN  33  33 100 CALM      29.96F
$$

ILZ028>032-037-038-041>044-048-051>054-059>061-042000-
CENTRAL ILLINOIS

CITY           SKY/WX    TMP DP  RH WIND       PRES   REMARKS
PONTIAC        SNOW      33  33 100 NE5       29.96F VSB 1/2 WCI  28
BLOOMINGTON    SNOW      33  31  92 NE7       29.94F VSB 1/2 WCI  27
DECATUR        LGT SNOW N/A N/A N/A E3        29.94F VSB 3/4
PEORIA         SNOW      32  32 100 E8        29.94F VSB 1/2 WCI  25
LACON*         SNOW      32  32 100 E6        29.94F VSB 1/2 WCI  26
LINCOLN*       HVY RAIN  33  33 100 CALM      29.96F VSB 1
SPRINGFIELD    SNOW      34  32  92 NE7       29.94F VSB 1/2 WCI  28
TAYLORVILLE    LGT SNOW  32  32  99 CALM      29.95F VSB 3/4
$$

ILZ033-039-045-046-055>057-062-063-042000-
EAST-CENTRAL ILLINOIS

CITY           SKY/WX    TMP DP  RH WIND       PRES   REMARKS
CHAMPAIGN      LGT SNOW  33  31  92 NE7       29.93F VSB 3/4 WCI  27
RANTOUL*       LGT SNOW  34  34  99 E6        29.94F VSB 1   WCI  29
MATTOON        RAIN      37  36  96 CALM      29.91F FOG
PARIS*         RAIN      37  37  99 CALM      29.93F
$$

ILZ079-100>102-042000-
SOUTHWEST ILLINOIS

CITY           SKY/WX    TMP DP  RH WIND       PRES   REMARKS
ALTON          LGT RAIN  36  36 100 SW5       29.95F WCI  32
BELLEVILLE     LGT RAIN  40  40 100 SW7       29.94F
CAHOKIA*       LGT RAIN  40  36  86 W6        29.95F
SPARTA*        DRIZZLE   39  38  97 W8        29.96S WCI  34
$$

ILZ064>066-069>071-074>076-080>082-084>086-088>090-092>094-042000-
SOUTH-CENTRAL ILLINOIS

CITY           SKY/WX    TMP DP  RH WIND       PRES   REMARKS
CARBONDALE     LGT RAIN  43  42  97 SW10      29.93F
CAIRO*         CLOUDY    43  43  99 SW6       29.96S FOG
EFFINGHAM*     LGT RAIN  39  39 100 CALM      29.94F
MARION         DRZL/FOG  45  43  93 S8        29.93F VSB 1
CENTRALIA*     RAIN      41  40  99 SW7       29.92F
SALEM*         DRIZZLE   41  39  93 SW6       29.93F
METROPOLIS*    DRIZZLE   44  43  97 CALM      29.95F
$$

ILZ067-068-072-073-078-083-087-091-042000-
SOUTHEAST ILLINOIS

CITY           SKY/WX    TMP DP  RH WIND       PRES   REMARKS
LAWRENCEVILLE  LGT RAIN  42  40  92 S10       29.93F FOG
FLORA*         LGT RAIN  42  40  95 SW7       29.93F
FAIRFIELD*     RAIN      41  41 100 S5        29.90F
HARRISBURG*    CLOUDY    43  43  98 S7        29.93F FOG
ROBINSON*      DRIZZLE   40  39  98 SE7       29.93F
CARMI*         CLOUDY    42  42  99 S9        29.92F FOG
$$

ABBREVIATIONS USED IN REMARKS
   TC - TEMPERATURE IN CELSIUS
  WCI - WIND CHILL INDEX
   HX - HEAT INDEX
  VSB - VISIBILITY
$$





USA.gov is the U.S. government's official web portal to all federal, state and local government web resources and services.